FW3899 Weather Reports


Display with metric or nautical units.
time (UTC)temp
F
wind
direction
speed
MPH
gust
MPH
rain 1hr
in
rain 24hr
in
rain mn
in
humidity
%
barometer
mb
20260905083014 69 262 8.0 10.0 0.00 0.00 0.00 78 1020.3
20260905081508 68 252 6.0 9.0 0.00 0.00 0.00 78 1020.0
20260905080008 68 222 2.0 7.0 0.00 0.00 0.00 81 1020.1
20260905074502 67 249 3.0 7.0 0.00 0.00 0.00 82 1020.0
20260905073102 67 256 3.0 7.0 0.00 0.00 0.00 82 1019.7
20260905071603 67 270 3.0 7.0 0.00 0.00 0.00 82 1019.6
20260905070057 67 261 4.0 6.0 0.00 0.00 0.00 81 1019.5
20260905064558 67 255 2.0 7.0 0.00 0.00 0.00 80 1019.3
20260905063051 67 257 2.0 6.0 0.00 0.00 0.00 78 1019.1
20260905061606 67 262 3.0 6.0 0.00 0.00 0.00 77 1018.9
20260905060047 67 262 3.0 8.0 0.00 0.00 0.00 76 1019.0
20260905054549 67 238 4.0 9.0 0.00 0.00 0.00 76 1018.6
20260905053042 67 228 5.0 10.0 0.00 0.00 0.00 76 1018.5
20260905051544 67 205 5.0 7.0 0.00 0.00 0.00 76 1018.3
20260905050038 67 208 3.0 5.0 0.00 0.00 0.00 75 1018.3
20260905044539 68 249 5.0 9.0 0.00 0.00 0.00 74 1018.3
20260905043104 68 268 7.0 13.0 0.00 0.00 0.00 73 1018.3
20260905041536 68 265 3.0 9.0 0.00 0.00 0.00 73 1018.2
20260905040046 67 259 6.0 10.0 0.00 0.00 0.00 73 1017.9
20260905034534 66 246 5.0 7.0 0.00 0.00 0.00 74 1017.8
20260905033030 66 283 2.0 9.0 0.00 0.00 0.00 71 1017.6
20260905031527 67 261 6.0 8.0 0.00 0.00 0.00 70 1017.5
20260905030023 69 279 5.0 9.0 0.00 0.00 0.00 67 1017.4
20260905024522 69 243 8.0 14.0 0.00 0.00 0.00 66 1017.3
20260905023019 69 269 5.0 9.0 0.00 0.00 0.00 66 1017.4
20260905021517 69 228 8.0 12.0 0.00 0.00 0.00 64 1017.1
20260905020014 70 211 9.0 13.0 0.00 0.00 0.00 63 1016.8
20260905014512 72 249 6.0 12.0 0.00 0.00 0.00 61 1017.0
20260905013010 72 270 10.0 14.0 0.00 0.00 0.00 60 1016.9
20260905011510 72 249 7.0 13.0 0.00 0.00 0.00 60 1016.7
20260905010015 72 237 6.0 12.0 0.00 0.00 0.00 61 1016.7
20260905004509 71 263 6.0 13.0 0.00 0.00 0.00 62 1016.6
20260905003006 71 251 5.0 10.0 0.00 0.00 0.00 64 1016.7
20260905001501 72 231 8.0 14.0 0.00 0.00 0.00 63 1016.6
20260905000058 72 254 8.0 11.0 0.00 0.00 0.00 61 1016.6
20260904234557 73 223 10.0 15.0 0.00 0.00 0.00 59 1016.6
20260904233053 74 220 10.0 14.0 0.00 0.00 0.00 59 1016.5
20260904231556 75 226 8.0 14.0 0.00 0.00 0.00 58 1016.4
20260904230051 75 234 10.0 14.0 0.00 0.00 0.00 57 1016.5
20260904224554 76 263 7.0 20.0 0.00 0.00 0.00 56 1016.6
20260904223049 75 259 10.0 16.0 0.00 0.00 0.00 56 1016.5
20260904221548 76 266 9.0 16.0 0.00 0.00 0.00 56 1016.4
20260904220143 74 240 9.0 15.0 0.00 0.00 0.00 59 1016.5
20260904214545 74 224 6.0 11.0 0.00 0.00 0.00 60 1016.2
20260904213042 75 225 7.0 12.0 0.00 0.00 0.00 60 1016.3
20260904211545 74 224 7.0 12.0 0.00 0.00 0.00 61 1016.2
20260904210046 73 213 7.0 11.0 0.00 0.00 0.00 63 1016.3
20260904204541 73 205 5.0 10.0 0.00 0.00 0.00 64 1016.1
20260904203048 73 203 6.0 10.0 0.00 0.00 0.00 64 1016.2
20260904201540 73 228 5.0 9.0 0.00 0.00 0.00 64 1016.2
20260904200041 74 228 4.0 6.0 0.00 0.00 0.00 64 1016.1
20260904194544 75 240 3.0 8.0 0.00 0.00 0.00 62 1016.1
20260904193038 76 261 6.0 10.0 0.00 0.00 0.00 61 1015.9
20260904191545 76 264 6.0 10.0 0.00 0.00 0.00 61 1015.8
20260904190046 76 260 6.0 9.0 0.00 0.00 0.00 61 1015.6
20260904184549 74 247 3.0 8.0 0.00 0.00 0.00 63 1015.3
20260904183035 74 216 2.0 5.0 0.00 0.00 0.00 64 1015.1
20260904181536 76 258 3.0 5.0 0.00 0.00 0.00 61 1015.0
20260904180034 79 259 4.0 9.0 0.00 0.00 0.00 57 1014.7
20260904174537 79 258 4.0 9.0 0.00 0.00 0.00 57 1014.5
20260904173040 82 268 5.0 12.0 0.00 0.00 0.00 53 1014.4
20260904171535 83 238 10.0 15.0 0.00 0.00 0.00 50 1014.2
20260904170041 84 243 7.0 11.0 0.00 0.00 0.00 51 1014.2
20260904164529 84 271 8.0 12.0 0.00 0.00 0.00 50 1014.3
20260904163027 85 283 5.0 12.0 0.00 0.00 0.00 50 1014.3
20260904161528 85 253 8.0 12.0 0.00 0.00 0.00 48 1014.4
20260904160025 85 259 7.0 14.0 0.00 0.00 0.00 49 1014.6
20260904154528 86 209 5.0 11.0 0.00 0.00 0.00 47 1014.6
20260904153021 85 249 7.0 15.0 0.00 0.00 0.00 48 1014.7
20260904151520 85 245 7.0 15.0 0.00 0.00 0.00 47 1015.0
20260904150030 86 217 7.0 13.0 0.00 0.00 0.00 48 1015.1
20260904144519 85 262 7.0 13.0 0.00 0.00 0.00 48 1015.1
20260904143018 86 210 8.0 14.0 0.00 0.00 0.00 47 1015.3
20260904141526 86 275 8.0 15.0 0.00 0.00 0.00 48 1015.6
20260904140030 86 256 7.0 13.0 0.00 0.00 0.00 47 1015.7
20260904134514 85 238 4.0 11.0 0.00 0.00 0.00 47 1015.7
20260904133012 85 228 8.0 13.0 0.00 0.00 0.00 47 1015.8
20260904131507 85 276 10.0 14.0 0.00 0.00 0.00 47 1015.9
20260904130004 84 303 7.0 13.0 0.00 0.00 0.00 48 1016.2
20260904124504 85 232 7.0 11.0 0.00 0.00 0.00 47 1016.2
20260904123002 84 263 9.0 13.0 0.00 0.00 0.00 49 1016.5
20260904121558 83 292 7.0 13.0 0.00 0.00 0.00 49 1016.7
20260904120104 82 305 5.0 14.0 0.00 0.00 0.00 50 1016.8
20260904114654 82 267 9.0 15.0 0.00 0.00 0.00 49 1017.0
20260904113050 81 274 10.0 13.0 0.00 0.00 0.00 50 1017.1
20260904111547 80 234 8.0 19.0 0.00 0.00 0.00 48 1017.4
20260904110045 80 241 10.0 16.0 0.00 0.00 0.00 49 1017.5
20260904104544 79 270 8.0 15.0 0.00 0.00 0.00 51 1017.8
20260904103040 79 271 8.0 15.0 0.00 0.00 0.00 52 1018.0
20260904101533 78 255 8.0 15.0 0.00 0.00 0.00 52 1018.4
20260904100030 77 203 9.0 15.0 0.00 0.00 0.00 51 1018.5
20260904094538 76 250 10.0 17.0 0.00 0.00 0.00 54 1018.7
20260904093022 75 202 11.0 16.0 0.00 0.00 0.00 55 1018.9
20260904091518 75 226 7.0 16.0 0.00 0.00 0.00 56 1019.1
20260904090014 75 237 4.0 11.0 0.00 0.00 0.00 56 1019.1
20260904084509 74 226 5.0 11.0 0.00 0.00 0.00 58 1019.1